CZ-6A DEB, 61409

Orbit data source: Space-Track

CZ-6A DEB, 61409 is space debris in LEO originally from a launch on Tue, 06 Aug 2024 UTC launched from the Taiyaun Space Center, China (TSC). Debris objects in space refer to the collection of defunct objects orbiting the Earth. Examples of debris include non-operational satellites, rocket bodies, and fragments generated from explosions, collisions, or faulty payload assembly.

Loading next visibility...
Identifier
61409, 2024-140YA
Orbit
LEO
Country
Flag of CNCN / PRC
Related business
Manufacturer
SAST
Mission
Spacecraft
Bus & Motor
Unknown
Mass
Unknown
Launch date (UTC)
2024-08-06 (1 year ago)
Launch vehicle
Unknown
Launch site
Taiyaun Space Center, China (TSC)
Object type
Payload
Rocket body
Debris
Shape & HBR
Unknown shape, 0.1 m
Radar Cross Section
Small (<0.1 m²)

Expand to show TLE details & history
Last TLE update: 2 days ago

TLE from 2 days ago
0 CZ-6A DEB
1 61409U 24140YA  25312.20559920  .00018469  00000-0  24095-2 0  9996
2 61409  89.0308 297.3126 0103572 248.7983 110.2149 14.76708067 62292
Epoch: 2025-11-08T04:56Z
TLE epoch observation values (Epoch: 2025-11-08T04:56:03.770Z)
Latitude
-0.00009°
Longitude
175.65834°
Altitude
668.649 km
Speed
7.509 km/s
True Right ascension
19h 49m 15s
True Declination
0° 00' 00"
Sunlit
Object was in daylight at epoch
Visualization orbit readout
Latitude
Unknown
Longitude
Unknown
Altitude
Unknown
Speed
Unknown
Apparent Right ascension
Unknown
Apparent Declination
Unknown
Sunlit
N/A
Visualization observer readout
Local Sidereal Time
19:54:47
Azimuth
Unknown
Elevation
Unknown
Doppler factor
Unknown
Orbital elements
Apogee altitude
709.257 km
Perigee altitude
563.951 km
Semi-major axis
7,014.741 km
Eccentricity
0.01036
Inclination
89.0308°
RAAN
297.3126°
Arg. of periapsis
248.7983°
True anomaly
111.32361°
Mean anomaly
110.2149°
Eccentric anomaly
110.76976°
Mean motion
3.69424 °/min
Orbital period
97.45 mins
BSTAR
0.0024095
Loading maneuver chart data...
Computing Atmospheric mass density...

Documentation

Showing up to 5 results
|